This is the latest recevied weather packets stored in our database for station/object KC5DP. If no packets are shown the sender has not sent any weather packets the latest 10 day(s).
| Time | Temp. | Humidity | Pressure | Rain* | Wind** | Luminosity | Snow |
|---|---|---|---|---|---|---|---|
| 1777918087 | 25° C | 42% | 1016.3 hPa | 0 mm | - | 819 W/m² | - |
| 1777917785 | 25° C | 42% | 1016.2 hPa | 0 mm | - | 686 W/m² | - |
| 1777917482 | 25.56° C | 42% | 1016.2 hPa | 0 mm | - | 757 W/m² | - |
| 1777917179 | 25° C | 43% | 1016.3 hPa | 0 mm | - | 799 W/m² | - |
| 1777916877 | 25.56° C | 42% | 1016.3 hPa | 0 mm | - | 807 W/m² | - |
| 1777916575 | 25.56° C | 40% | 1016.3 hPa | 0 mm | - | 783 W/m² | - |
| 1777916271 | 25° C | 43% | 1016.3 hPa | 0 mm | - | 789 W/m² | - |
| 1777915968 | 25° C | 44% | 1016.7 hPa | 0 mm | - | 791 W/m² | - |
| 1777915665 | 25° C | 40% | 1016.5 hPa | 0 mm | - | 787 W/m² | - |
| 1777915361 | 25° C | 42% | 1016.5 hPa | 0 mm | - | 787 W/m² | - |
| 1777915057 | 25° C | 42% | 1016.5 hPa | 0 mm | - | 787 W/m² | - |
| 1777914754 | 25° C | 44% | 1016.5 hPa | 0 mm | - | 782 W/m² | - |
| 1777914452 | 24.44° C | 42% | 1016.5 hPa | 0 mm | - | 773 W/m² | - |
| 1777914149 | 24.44° C | 45% | 1016.2 hPa | 0 mm | - | 769 W/m² | - |
| 1777913845 | 24.44° C | 42% | 1016.6 hPa | 0 mm | - | 764 W/m² | - |
| 1777913541 | 24.44° C | 45% | 1016.5 hPa | 0 mm | - | 756 W/m² | - |
| 1777913208 | 24.44° C | 47% | 1016.3 hPa | 0 mm | - | 740 W/m² | - |
| 1777912904 | 24.44° C | 47% | 1016.3 hPa | 0 mm | - | 740 W/m² | - |
| 1777912601 | 23.89° C | 47% | 1016.5 hPa | 0 mm | - | 730 W/m² | - |
| 1777912298 | 24.44° C | 43% | 1016.8 hPa | 0 mm | - | 726 W/m² | - |
| 1777911993 | 24.44° C | 44% | 1016.9 hPa | 0 mm | - | 720 W/m² | - |
| 1777911690 | 24.44° C | 44% | 1017.1 hPa | 0 mm | - | 704 W/m² | - |
| 1777911386 | 24.44° C | 47% | 1017 hPa | 0 mm | - | 699 W/m² | - |
| 1777911084 | 23.89° C | 46% | 1017 hPa | 0 mm | - | 697 W/m² | - |
| 1777910781 | 23.89° C | 49% | 1016.7 hPa | 0 mm | - | 659 W/m² | - |
* Rain latest hour (hover to see other rain measurements)
** Current wind speed in m/s (hover to see current wind gust speed)